Location: Hiram
(41.3130°N, 81.1440°W)
Time: 22:29:51
(UTC-05:00)

Daily predictions for brighter satellites

Satellite Brightness Start Highest point End
(mag) Time Altitude Azimuth Time Altitude Azimuth Time Altitude Azimuth
USA 215 3.8 18:15:42 10° ENE 18:21:51 42° SE 18:27:56 10° SSW
NOSS 3-2 (C) 4.3 18:19:50 10° S 18:24:47 29° ESE 18:30:06 10° NE
Cosmos 2233 Rocket 4.4 18:19:41 10° N 18:25:37 41° ENE 18:31:27 10° SE
Cosmos 2016 Rocket 4.1 18:19:43 10° N 18:26:08 90° W 18:32:27 10° S
Aureole 2 Rocket 4.1 18:23:16 10° NW 18:26:15 38° WSW 18:29:26 10° S
Cosmos 2297 Rocket 3.3 18:23:20 10° SSE 18:27:44 24° E 18:32:08 10° NE
ORS 1 (USA 231) 4.2 18:25:43 10° W 18:28:06 59° S 18:30:30 10° ESE
Cosmos 923 Rocket 4.5 18:23:33 10° SSW 18:28:45 68° WNW 18:34:01 10° NNE
MONITOR-E 4.2 18:27:09 10° SSE 18:30:06 54° ENE 18:33:05 10° N
SeaSat 1 3.6 18:26:54 10° ESE 18:30:47 24° NE 18:34:42 10° N
SPOT 3 Rocket 3.8 18:26:50 10° SE 18:31:48 49° ENE 18:36:50 10° N
FENGYUN 3A 3.6 18:27:47 10° SSE 18:33:08 73° ENE 18:38:33 10° N
Ariane Rocket 4.3 18:30:40 10° S 18:35:33 47° W 18:40:29 10° NNW
NOAA 12 4.1 18:30:22 10° SSE 18:35:35 65° ENE 18:40:52 10° N
Cosmos 1825 4.1 18:33:44 10° SW 18:37:11 34° WNW 18:40:39 10° N
ALOS 2.3 18:32:37 10° SSE 18:37:17 84° ENE 18:41:59 10° N
Cosmos 2360 Rocket 4.4 18:32:30 10° NW 18:37:25 31° WSW 18:42:18 10° SSW
Cosmos 1869 Rocket 3.7 18:34:22 10° SSW 18:38:40 77° W 18:43:01 10° N
Cosmos 2112 Rocket 4.2 18:34:52 10° SSW 18:40:11 82° WNW 18:45:35 10° NNE
Cosmos 2056 Rocket 3.8 18:36:05 10° N 18:41:19 47° ENE 18:46:31 10° SE
Cosmos 2333 Rocket 2.2 18:35:54 10° NNW 18:41:35 67° ENE 18:47:11 10° SSE
Cosmos 1812 4.1 18:41:13 10° NNE 18:44:05 19° ENE 18:46:56 10° ESE
Abrixas rocket 2.1 18:41:03 10° WNW 18:44:14 86° SSW 18:47:25 10° ESE
Cosmos 2221 Rocket 3.6 18:40:37 10° N 18:45:03 85° W 18:49:27 10° S
COSMOS 2428 3.3 18:42:05 10° NNW 18:47:45 63° WSW 18:53:22 10° S
Cosmos 2285 Rocket 4.0 18:42:51 10° S 18:49:02 62° ESE 18:55:19 10° NNE
Lacrosse 4 Rocket 3.2 18:46:37 10° NW 18:50:29 37° WSW 18:54:26 10° S
Cosmos 2082 4.3 18:47:10 10° SSE 18:52:09 34° ESE 18:57:10 10° NE
USA 267 4.2 18:50:11 12° E 18:55:22 32° NNE 19:01:01 10° NW
Cosmos 405 3.7 18:54:21 10° SSE 18:57:27 30° E 19:00:34 10° NNE
Cosmos 2084 Rocket 3.7 18:53:41 10° SSW 18:57:58 51° ESE 19:01:51 11° NE
Meteor 1-27 Rocket 4.0 18:53:53 10° NNW 18:59:44 78° W 19:05:39 10° S
BREEZE-M DEB (TANK) 3.1 19:00:10 10° NW 19:02:10 21° NNE 19:03:07 17° NE
CENTAUR R/B 3.5 19:00:09 10° SSE 19:04:41 23° ESE 19:07:41 17° ENE
ERS-2 2.2 19:01:56 10° SSE 19:05:32 56° ENE 19:09:09 10° N
EO 1 Del DPAF 3.3 19:03:04 10° NNE 19:06:55 83° WNW 19:10:43 10° SSW
FengYun 1-2 T 4.2 19:01:42 10° SSE 19:07:10 67° ENE 19:12:38 10° N
COSMO-SKYMED 1 3.9 19:03:16 10° N 19:07:22 42° WNW 19:11:27 10° SW
CZ-4 R/B 4.4 19:04:48 10° SW 19:07:53 20° W 19:10:56 10° NW
Cosmos 1624 Rocket 4.0 19:06:03 10° NNW 19:11:19 90° ENE 19:16:31 10° SSE
Cosmos 1980 3.6 19:06:22 10° NNW 19:12:05 76° ENE 19:17:45 10° SSE
SJ-6B 2.9 19:16:41 10° SSE 19:20:16 46° ENE 19:23:56 10° N
FALCON 9 R/B 4.3 19:13:33 10° WSW 19:20:44 64° S 19:39:29 21° E
NOSS 3-2 (A) 3.5 19:18:35 10° SW 19:24:28 79° NW 19:31:04 10° NNE
Iridium 4 Rocket 3.6 19:19:53 10° N 19:24:46 44° E 19:29:13 10° SSE
Cosmos 158 Rocket 4.4 19:20:45 10° SSE 19:25:11 35° ESE 19:27:13 25° ENE
Thor Agena Rocket 3.6 19:22:02 10° NNE 19:27:01 51° E 19:31:55 10° S
ATLAS 3B R/B 3.6 19:21:55 10° SW 19:28:55 50° NW 19:35:41 10° NNE
Meteor 1-14 Rocket 4.3 19:23:28 10° S 19:29:04 61° E 19:34:51 10° NNE
Cosmos 1633 2.6 19:28:09 10° SSE 19:31:34 47° E 19:31:46 47° E
Aureole 3 4.2 19:26:59 10° S 19:33:34 81° E 19:38:46 10° N
USA 32 4.2 19:32:25 10° SSE 19:37:24 47° E 19:42:24 10° NNE
Cosmos 1674 Rocket 3.5 19:34:31 10° N 19:38:54 87° W 19:43:13 10° S
Cosmos 44 Rocket 4.0 19:36:33 10° NNW 19:41:10 35° NE 19:41:32 35° ENE
CZ-3 Stage 3 3.8 19:39:24 10° WSW 19:41:59 16° SSW 19:43:05 14° S
Shenzhou-11 Module 2.9 19:39:50 10° W 19:42:42 41° SSW 19:42:46 40° SSW
Cosmos 1908 Rocket 3.5 19:39:15 10° S 19:43:39 63° E 19:48:06 10° NNE
Resurs 1-3 4.3 19:44:58 35° NE 19:44:58 35° NE 19:48:10 10° N
Tiangong 2 1.2 19:42:18 10° WNW 19:45:13 70° NW 19:45:13 70° NW
Resurs 01 Rocket 2.3 19:46:34 37° NE 19:46:34 37° NE 19:49:53 10° N
Envisat 2.9 19:42:30 10° SSE 19:47:33 72° ENE 19:52:37 10° N
Cosmos 2219 Rocket 4.1 19:42:50 10° NW 19:47:41 30° WSW 19:52:30 10° SSW
Cosmos 1513 Rocket 4.4 19:45:31 10° N 19:51:55 74° E 19:58:11 10° SSE
Cosmos 1733 Rocket 4.4 19:50:23 10° SSW 19:54:25 39° WNW 19:58:29 10° N
Lacrosse 5 2.2 19:49:26 10° NW 19:54:26 61° SW 19:56:56 28° SSE
Meteor 1-18 Rocket 4.1 19:50:40 10° N 19:56:20 82° E 20:01:53 10° S
Cosmos 2227 Rocket 2.9 19:51:10 10° SW 19:56:41 55° WNW 20:02:15 10° NNE
Cosmos 2237 Rocket 3.0 19:52:05 10° NW 19:57:30 50° WSW 20:02:53 10° S
SL-16 R/B 2.1 19:52:49 10° NNW 19:58:30 69° ENE 20:00:05 47° SE
Tsikada Rocket 4.1 19:53:01 10° SSE 19:59:09 52° E 20:05:21 10° NNE
Meteor 1-20 Rocket 4.2 19:55:01 10° S 20:00:40 88° W 20:06:28 10° N
CRYOSAT 2 4.2 19:57:45 10° N 20:02:40 82° E 20:07:32 10° S
USA 215 3.7 20:00:22 20° NE 20:04:59 60° NW 20:11:22 10° WSW
CZ-2D R/B 3.9 20:03:43 21° S 20:06:05 55° W 20:09:55 10° NNW
SeaSat 1 3.2 20:03:14 10° S 20:08:01 50° WSW 20:12:49 10° NW
Cosmos 921 Rocket 4.4 20:05:36 10° N 20:07:56 28° N 20:07:56 28° N
Cosmos 2297 Rocket 3.1 20:05:57 10° SW 20:11:24 48° WNW 20:16:54 10° NNE
NOSS 3-2 (C) 4.2 20:09:27 10° WSW 20:15:15 51° NW 20:20:33 15° NNE
ARGOS Delta rocket 4.2 20:10:59 10° N 20:15:56 64° WNW 20:20:36 10° SSW
CZ-3C R/B 4.3 20:16:04 10° S 20:19:15 18° SSE 20:19:15 18° SSE
Sich 1 Rocket 4.0 20:19:19 10° SSW 20:23:47 61° W 20:23:57 61° WNW
Cosmos 44 3.6 20:24:51 10° NW 20:29:26 69° WNW 20:29:26 69° WNW
Cosmos 1452 Rocket 4.4 20:24:57 10° NNW 20:30:00 48° WSW 20:32:16 29° SSW
USA 267 3.1 20:37:32 79° ENE 20:37:50 81° NE 20:44:24 10° NW
Spot 2 Rocket 4.1 20:39:20 50° NW 20:39:20 50° NW 20:43:07 10° NNW
CENTAUR R/B 2.8 20:48:37 10° SW 20:54:36 63° NW 20:55:00 62° NNW
CZ-4C R/B 4.0 20:52:16 10° NNW 20:56:28 29° NNE 20:56:28 29° NNE
Resurs 01 Rocket 4.5 21:24:08 14° WNW 21:24:08 14° WNW 21:25:23 10° NW
